Location: ????? ??????
(37.8317°N, 23.8750°E)
Time: 12:45:26
(UTC+00:00)

Cosmos 1937 Rocket - Pass Details

Date: 20 January 2021
Orbit: 746 x 780 km, 74.0° (Epoch: 04 March)

Event Time Altitude Azimuth Distance (km) Brightness Sun altitude
Rises 17:09:03 0° 176° (S) 3,230 6.8 -18.5°
Reaches altitude 10° 17:11:32 10° 168° (SSE) 2,312 6.0 -19.0°
Maximum altitude 17:16:22 38° 101° (E) 1,170 4.0 -19.9°
Enters shadow 17:16:29 38° 98° (E) 1,171 3.9 -19.9°
